AAY1367 KSBN-KSRQ

Flight info

Callsign AAY1367
Flight time 2h 31m
Altitude 37000
Route GOTNE IIU VXV/N0450F380 THRSR HONID BANGZ2
Aircraft A20N/M-SDE2E3FGHIRWXY/LB1

Departure

Time 2026-04-19 17:02
Airport South Bend International Airport (KSBN)

Arrival

Time 2026-04-19 19:34
Airport Sarasota Bradenton International Airport (KSRQ)
Time Latitude Longitude Altitude Speed Heading
2026-04-19 16:38 41.70172 -86.31089 781 ft 0 kts 157°
2026-04-19 16:57 41.70179 -86.31093 784 ft 2 kts 154°
2026-04-19 16:57 41.70194 -86.31102 784 ft 2 kts 155°
2026-04-19 16:57 41.70209 -86.31112 784 ft 2 kts 149°
2026-04-19 16:58 41.70221 -86.31127 785 ft 2 kts 94°
2026-04-19 16:58 41.70220 -86.31136 785 ft 0 kts 73°
2026-04-19 16:59 41.70226 -86.31088 785 ft 14 kts 83°
2026-04-19 16:59 41.70284 -86.30906 785 ft 29 kts 60°
2026-04-19 17:00 41.70310 -86.30614 784 ft 38 kts 89°
2026-04-19 17:00 41.70319 -86.30255 782 ft 39 kts 89°
2026-04-19 17:00 41.70330 -86.29921 781 ft 23 kts 67°
2026-04-19 17:00 41.70456 -86.29883 782 ft 18 kts 331°
2026-04-19 17:01 41.70478 -86.29957 782 ft 0 kts 268°
2026-04-19 17:01 41.70477 -86.29989 782 ft 19 kts 268°
2026-04-19 17:01 41.70472 -86.30502 781 ft 94 kts 269°
2026-04-19 17:01 41.70457 -86.31716 793 ft 162 kts 269°
2026-04-19 17:02 41.70433 -86.33370 1121 ft 188 kts 269°
2026-04-19 17:02 41.70395 -86.35178 2005 ft 194 kts 268°
2026-04-19 17:02 41.70043 -86.36901 2880 ft 195 kts 247°
2026-04-19 17:02 41.69189 -86.38406 3204 ft 215 kts 226°
2026-04-19 17:03 41.67913 -86.39609 3420 ft 234 kts 212°
2026-04-19 17:03 41.66309 -86.40336 3632 ft 252 kts 193°
2026-04-19 17:03 41.64521 -86.40443 3948 ft 263 kts 179°
2026-04-19 17:03 41.62746 -86.39706 4312 ft 275 kts 151°
2026-04-19 17:04 41.61207 -86.38200 4726 ft 280 kts 146°
2026-04-19 17:04 41.59794 -86.36352 5119 ft 287 kts 134°
2026-04-19 17:04 41.58381 -86.34470 5571 ft 287 kts 140°
2026-04-19 17:04 41.56978 -86.32571 6056 ft 290 kts 134°
2026-04-19 17:05 41.55830 -86.30320 6541 ft 292 kts 131°
2026-04-19 17:05 41.54358 -86.28557 6979 ft 280 kts 156°
2026-04-19 17:05 41.52617 -86.27494 7474 ft 273 kts 166°
2026-04-19 17:05 41.50850 -86.26703 7980 ft 269 kts 171°
2026-04-19 17:06 41.49059 -86.26027 8447 ft 268 kts 172°
2026-04-19 17:06 41.47259 -86.25384 8937 ft 267 kts 172°
2026-04-19 17:06 41.45468 -86.24736 9415 ft 266 kts 172°
2026-04-19 17:06 41.43684 -86.24067 9884 ft 267 kts 172°
2026-04-19 17:07 41.41891 -86.23370 10236 ft 272 kts 171°
2026-04-19 17:07 41.40043 -86.22641 10430 ft 281 kts 171°
2026-04-19 17:07 41.38139 -86.21878 10582 ft 290 kts 171°
2026-04-19 17:07 41.36182 -86.21085 10720 ft 298 kts 171°
2026-04-19 17:08 41.34174 -86.20265 10887 ft 304 kts 170°
2026-04-19 17:08 41.32143 -86.19430 11129 ft 307 kts 170°
2026-04-19 17:08 41.30097 -86.18588 11359 ft 309 kts 171°
2026-04-19 17:08 41.28036 -86.17741 11596 ft 311 kts 171°
2026-04-19 17:09 41.25989 -86.16904 11826 ft 313 kts 171°
2026-04-19 17:09 41.23904 -86.16053 12052 ft 315 kts 171°
2026-04-19 17:09 41.21733 -86.15178 12262 ft 331 kts 171°
2026-04-19 17:09 41.19476 -86.14277 12534 ft 346 kts 171°
2026-04-19 17:10 41.17170 -86.13351 12996 ft 354 kts 171°
2026-04-19 17:10 41.14785 -86.12384 13565 ft 360 kts 171°
2026-04-19 17:10 41.12369 -86.11400 14111 ft 365 kts 171°
2026-04-19 17:10 41.09929 -86.10406 14662 ft 368 kts 171°
2026-04-19 17:11 41.07467 -86.09403 15255 ft 370 kts 172°
2026-04-19 17:11 41.04996 -86.08399 15855 ft 372 kts 172°
2026-04-19 17:11 41.02508 -86.07391 16443 ft 375 kts 172°
2026-04-19 17:11 41.00005 -86.06380 17047 ft 377 kts 173°
2026-04-19 17:12 40.97520 -86.05420 17636 ft 376 kts 175°
2026-04-19 17:12 40.94963 -86.04717 18222 ft 374 kts 180°
2026-04-19 17:12 40.92388 -86.04158 18736 ft 375 kts 181°
2026-04-19 17:12 40.89799 -86.03670 19264 ft 376 kts 182°
2026-04-19 17:13 40.87202 -86.03222 19783 ft 377 kts 182°
2026-04-19 17:13 40.84597 -86.02790 20292 ft 379 kts 183°
2026-04-19 17:13 40.81959 -86.02359 20760 ft 382 kts 183°
2026-04-19 17:13 40.79310 -86.01922 21253 ft 384 kts 183°
2026-04-19 17:14 40.76650 -86.01477 21746 ft 386 kts 183°
2026-04-19 17:14 40.73972 -86.01025 22216 ft 389 kts 183°
2026-04-19 17:14 40.71272 -86.00568 22628 ft 392 kts 183°
2026-04-19 17:14 40.68601 -86.00113 23085 ft 395 kts 183°
2026-04-19 17:15 40.65866 -85.99647 23544 ft 397 kts 183°
2026-04-19 17:15 40.63112 -85.99177 23965 ft 400 kts 183°
2026-04-19 17:15 40.60328 -85.98704 24294 ft 403 kts 183°
2026-04-19 17:15 40.57539 -85.98230 24676 ft 405 kts 183°
2026-04-19 17:16 40.54739 -85.97754 25045 ft 407 kts 183°
2026-04-19 17:16 40.51927 -85.97276 25401 ft 409 kts 183°
2026-04-19 17:16 40.49090 -85.96797 25648 ft 412 kts 183°
2026-04-19 17:16 40.46272 -85.96320 25995 ft 414 kts 183°
2026-04-19 17:17 40.43410 -85.95835 26329 ft 415 kts 183°
2026-04-19 17:17 40.40531 -85.95348 26646 ft 418 kts 184°
2026-04-19 17:17 40.37632 -85.94860 26917 ft 420 kts 184°
2026-04-19 17:17 40.34725 -85.94370 27223 ft 422 kts 183°
2026-04-19 17:18 40.31809 -85.93878 27527 ft 424 kts 183°
2026-04-19 17:18 40.28874 -85.93383 27829 ft 426 kts 183°
2026-04-19 17:18 40.25921 -85.92887 28071 ft 428 kts 183°
2026-04-19 17:18 40.22956 -85.92388 28359 ft 430 kts 183°
2026-04-19 17:19 40.20026 -85.91896 28641 ft 431 kts 183°
2026-04-19 17:19 40.17049 -85.91395 28958 ft 433 kts 183°
2026-04-19 17:19 40.14067 -85.90893 29313 ft 432 kts 183°
2026-04-19 17:19 40.11083 -85.90389 29742 ft 430 kts 183°
2026-04-19 17:20 40.08121 -85.89889 30165 ft 429 kts 183°
2026-04-19 17:20 40.05170 -85.89393 30514 ft 428 kts 184°
2026-04-19 17:20 40.02208 -85.88900 30759 ft 429 kts 184°
2026-04-19 17:20 39.99243 -85.88408 31051 ft 429 kts 184°
2026-04-19 17:21 39.96277 -85.87914 31355 ft 429 kts 184°
2026-04-19 17:21 39.93313 -85.87421 31675 ft 429 kts 184°
2026-04-19 17:21 39.90393 -85.86936 31932 ft 429 kts 184°
2026-04-19 17:21 39.87422 -85.86442 32227 ft 429 kts 184°
2026-04-19 17:22 39.84457 -85.85949 32543 ft 429 kts 184°
2026-04-19 17:22 39.81505 -85.85458 32860 ft 428 kts 184°
2026-04-19 17:22 39.78546 -85.84967 33146 ft 428 kts 184°
2026-04-19 17:22 39.75587 -85.84476 33447 ft 427 kts 184°
2026-04-19 17:23 39.72636 -85.83986 33758 ft 427 kts 184°
2026-04-19 17:23 39.69694 -85.83499 34079 ft 426 kts 184°
2026-04-19 17:23 39.66747 -85.83013 34300 ft 426 kts 184°
2026-04-19 17:23 39.63801 -85.82527 34514 ft 426 kts 184°
2026-04-19 17:24 39.60854 -85.82041 34728 ft 426 kts 184°
2026-04-19 17:24 39.57917 -85.81557 34931 ft 427 kts 184°
2026-04-19 17:24 39.54962 -85.81072 35098 ft 427 kts 184°
2026-04-19 17:24 39.52016 -85.80588 35271 ft 428 kts 184°
2026-04-19 17:25 39.49048 -85.80100 35473 ft 428 kts 184°
2026-04-19 17:25 39.46134 -85.79621 35667 ft 428 kts 184°
2026-04-19 17:25 39.43177 -85.79135 35826 ft 428 kts 184°
2026-04-19 17:25 39.40218 -85.78650 36016 ft 429 kts 184°
2026-04-19 17:26 39.37262 -85.78165 36202 ft 429 kts 184°
2026-04-19 17:26 39.34299 -85.77679 36394 ft 429 kts 184°
2026-04-19 17:26 39.31337 -85.77195 36556 ft 429 kts 184°
2026-04-19 17:26 39.28376 -85.76711 36735 ft 429 kts 184°
2026-04-19 17:27 39.25417 -85.76227 36924 ft 428 kts 184°
2026-04-19 17:27 39.22461 -85.75744 37119 ft 428 kts 185°
2026-04-19 17:27 39.16522 -85.74779 37228 ft 431 kts 185°
2026-04-19 17:28 39.10572 -85.73811 37232 ft 430 kts 185°
2026-04-19 17:28 39.04667 -85.72851 37227 ft 431 kts 185°
2026-04-19 17:29 38.98710 -85.71885 37234 ft 431 kts 185°
2026-04-19 17:29 38.92754 -85.70921 37239 ft 432 kts 184°
2026-04-19 17:30 38.87787 -85.70119 37256 ft 432 kts 185°
2026-04-19 17:30 38.81810 -85.69154 37247 ft 433 kts 185°
2026-04-19 17:31 38.75826 -85.68190 37266 ft 433 kts 184°
2026-04-19 17:31 38.69833 -85.67226 37249 ft 434 kts 184°
2026-04-19 17:32 38.63843 -85.66264 37263 ft 434 kts 184°
2026-04-19 17:32 38.57881 -85.65309 37741 ft 435 kts 184°
2026-04-19 17:33 38.54854 -85.64828 37550 ft 440 kts 184°
2026-04-19 17:33 38.51786 -85.64344 37297 ft 444 kts 184°
2026-04-19 17:33 38.45640 -85.63362 37250 ft 445 kts 184°
2026-04-19 17:34 38.39522 -85.62377 37247 ft 445 kts 184°
2026-04-19 17:34 38.33389 -85.61396 37246 ft 444 kts 184°
2026-04-19 17:35 38.27266 -85.60422 37275 ft 443 kts 184°
2026-04-19 17:35 38.21150 -85.59452 37276 ft 442 kts 185°
2026-04-19 17:36 38.15024 -85.58482 37274 ft 443 kts 184°
2026-04-19 17:36 38.11969 -85.57715 37270 ft 455 kts 176°
2026-04-19 17:36 38.08975 -85.56355 37272 ft 469 kts 166°
2026-04-19 17:37 38.03169 -85.52264 37268 ft 481 kts 160°
2026-04-19 17:37 37.97479 -85.47727 37272 ft 483 kts 159°
2026-04-19 17:38 37.91806 -85.43150 37273 ft 483 kts 159°
2026-04-19 17:38 37.86125 -85.38633 37274 ft 482 kts 159°
2026-04-19 17:39 37.80426 -85.34149 37273 ft 482 kts 160°
2026-04-19 17:39 37.74759 -85.29709 37277 ft 481 kts 160°
2026-04-19 17:40 37.69071 -85.25262 37277 ft 481 kts 160°
2026-04-19 17:40 37.63384 -85.20821 37279 ft 480 kts 160°
2026-04-19 17:41 37.57707 -85.16394 37304 ft 479 kts 160°
2026-04-19 17:41 37.52030 -85.11975 37312 ft 478 kts 160°
2026-04-19 17:42 37.46371 -85.07578 37317 ft 477 kts 160°
2026-04-19 17:42 37.40753 -85.03222 37316 ft 477 kts 160°
2026-04-19 17:43 37.35103 -84.98848 37303 ft 476 kts 161°
2026-04-19 17:43 37.29462 -84.94490 37304 ft 475 kts 161°
2026-04-19 17:44 37.23833 -84.90147 37288 ft 475 kts 161°
2026-04-19 17:44 37.18199 -84.85810 37281 ft 474 kts 161°
2026-04-19 17:45 37.12607 -84.81516 37280 ft 474 kts 161°
2026-04-19 17:45 37.06983 -84.77200 37280 ft 474 kts 161°
2026-04-19 17:46 37.01360 -84.72892 37276 ft 473 kts 161°
2026-04-19 17:46 36.95736 -84.68592 37277 ft 473 kts 162°
2026-04-19 17:47 36.90110 -84.64298 37278 ft 473 kts 162°
2026-04-19 17:47 36.84536 -84.60051 37311 ft 472 kts 162°
2026-04-19 17:48 36.78926 -84.55783 37311 ft 471 kts 162°
2026-04-19 17:48 36.73321 -84.51528 37291 ft 471 kts 162°
2026-04-19 17:49 36.67727 -84.47289 37290 ft 470 kts 162°
2026-04-19 17:49 36.62130 -84.43054 37284 ft 470 kts 162°
2026-04-19 17:50 36.56547 -84.38836 37285 ft 470 kts 163°
2026-04-19 17:50 36.50948 -84.34617 37273 ft 469 kts 163°
2026-04-19 17:51 36.45412 -84.30448 37267 ft 468 kts 163°
2026-04-19 17:51 36.39845 -84.26263 37271 ft 467 kts 163°
2026-04-19 17:52 36.34292 -84.22097 37267 ft 466 kts 163°
2026-04-19 17:52 36.28747 -84.17944 37262 ft 465 kts 163°
2026-04-19 17:53 36.23215 -84.13806 37259 ft 463 kts 163°
2026-04-19 17:53 36.17701 -84.09688 37257 ft 462 kts 163°
2026-04-19 17:54 36.12205 -84.05593 37270 ft 460 kts 164°
2026-04-19 17:54 36.07350 -84.01981 37276 ft 459 kts 164°
2026-04-19 17:55 36.01880 -83.97918 37279 ft 458 kts 164°
2026-04-19 17:55 35.96425 -83.93892 37281 ft 453 kts 167°
2026-04-19 17:56 35.93637 -83.92261 37285 ft 435 kts 175°
2026-04-19 17:56 35.90800 -83.91193 37296 ft 416 kts 184°
2026-04-19 17:56 35.88007 -83.90716 37279 ft 397 kts 192°
2026-04-19 17:56 35.85305 -83.90798 37288 ft 381 kts 201°
2026-04-19 17:57 35.80178 -83.91836 37290 ft 373 kts 205°
2026-04-19 17:57 35.75108 -83.93134 37286 ft 372 kts 205°
2026-04-19 17:58 35.70036 -83.94435 37281 ft 372 kts 205°
2026-04-19 17:58 35.64951 -83.95693 37276 ft 373 kts 204°
2026-04-19 17:59 35.59860 -83.96929 37270 ft 373 kts 204°
2026-04-19 17:59 35.54770 -83.98158 37261 ft 373 kts 204°
2026-04-19 18:00 35.49677 -83.99388 37256 ft 373 kts 204°
2026-04-19 18:00 35.44573 -84.00624 37258 ft 373 kts 204°
2026-04-19 18:01 35.39483 -84.01855 37245 ft 372 kts 204°
2026-04-19 18:01 35.34389 -84.03082 37248 ft 373 kts 204°
2026-04-19 18:02 35.29292 -84.04308 37248 ft 373 kts 204°
2026-04-19 18:02 35.24233 -84.05522 37253 ft 373 kts 204°
2026-04-19 18:03 35.19134 -84.06745 37245 ft 373 kts 204°
2026-04-19 18:03 35.14029 -84.07969 37247 ft 373 kts 204°
2026-04-19 18:04 35.08925 -84.09191 37249 ft 374 kts 204°
2026-04-19 18:04 35.03824 -84.10411 37237 ft 374 kts 203°
2026-04-19 18:05 34.98712 -84.11633 37232 ft 374 kts 203°
2026-04-19 18:05 34.93594 -84.12854 37241 ft 375 kts 203°
2026-04-19 18:06 34.88490 -84.14071 37239 ft 376 kts 203°
2026-04-19 18:06 34.83338 -84.15297 37239 ft 377 kts 202°
2026-04-19 18:07 34.75609 -84.17133 37230 ft 378 kts 202°
2026-04-19 18:08 34.70441 -84.18359 37229 ft 379 kts 202°
2026-04-19 18:08 34.65251 -84.19588 37219 ft 380 kts 202°
2026-04-19 18:09 34.60055 -84.20817 37215 ft 381 kts 202°
2026-04-19 18:09 34.54880 -84.22040 37217 ft 381 kts 202°
2026-04-19 18:10 34.49662 -84.23271 37220 ft 383 kts 202°
2026-04-19 18:10 34.44423 -84.24505 37225 ft 383 kts 202°
2026-04-19 18:11 34.39182 -84.25739 37230 ft 384 kts 202°
2026-04-19 18:11 34.33926 -84.26975 37235 ft 385 kts 202°
2026-04-19 18:12 34.28687 -84.28205 37240 ft 386 kts 201°
2026-04-19 18:12 34.23408 -84.29443 37239 ft 387 kts 201°
2026-04-19 18:13 34.18086 -84.30689 37232 ft 387 kts 201°
2026-04-19 18:13 34.12821 -84.31920 37224 ft 388 kts 201°
2026-04-19 18:14 34.07516 -84.33159 37223 ft 389 kts 201°
2026-04-19 18:14 34.03087 -84.34193 37230 ft 390 kts 201°
2026-04-19 18:15 33.97759 -84.35434 37236 ft 390 kts 201°
2026-04-19 18:15 33.92409 -84.36679 37245 ft 391 kts 201°
2026-04-19 18:16 33.87054 -84.37924 37238 ft 392 kts 201°
2026-04-19 18:16 33.81684 -84.39171 37241 ft 393 kts 201°
2026-04-19 18:17 33.76305 -84.40418 37249 ft 394 kts 201°
2026-04-19 18:17 33.70939 -84.41660 37238 ft 395 kts 201°
2026-04-19 18:18 33.65533 -84.42911 37242 ft 396 kts 201°
2026-04-19 18:18 33.62770 -84.43351 37241 ft 407 kts 193°
2026-04-19 18:18 33.59920 -84.43408 37241 ft 411 kts 191°
2026-04-19 18:19 33.54180 -84.43329 37241 ft 414 kts 190°
2026-04-19 18:19 33.48416 -84.43215 37261 ft 415 kts 190°
2026-04-19 18:20 33.42621 -84.43096 37270 ft 417 kts 190°
2026-04-19 18:20 33.36812 -84.42977 37268 ft 418 kts 189°
2026-04-19 18:21 33.31007 -84.42858 37263 ft 420 kts 189°
2026-04-19 18:21 33.25149 -84.42738 37255 ft 421 kts 189°
2026-04-19 18:22 33.19273 -84.42618 37233 ft 423 kts 189°
2026-04-19 18:22 33.13377 -84.42498 37221 ft 424 kts 189°
2026-04-19 18:23 33.07500 -84.42379 37223 ft 425 kts 189°
2026-04-19 18:23 33.01567 -84.42258 37227 ft 427 kts 190°
2026-04-19 18:24 32.95626 -84.42138 37226 ft 428 kts 190°
2026-04-19 18:24 32.89641 -84.42016 37231 ft 429 kts 190°
2026-04-19 18:25 32.83652 -84.41894 37222 ft 431 kts 190°
2026-04-19 18:25 32.77643 -84.41773 37218 ft 432 kts 190°
2026-04-19 18:26 32.71611 -84.41652 37207 ft 434 kts 190°
2026-04-19 18:26 32.65562 -84.41530 37203 ft 435 kts 190°
2026-04-19 18:27 32.59493 -84.41407 37201 ft 436 kts 190°
2026-04-19 18:27 32.53416 -84.41284 37200 ft 437 kts 190°
2026-04-19 18:28 32.47336 -84.41162 37196 ft 437 kts 191°
2026-04-19 18:28 32.41278 -84.41041 37195 ft 438 kts 191°
2026-04-19 18:29 32.35167 -84.40919 37193 ft 439 kts 191°
2026-04-19 18:29 32.29064 -84.40796 37190 ft 439 kts 191°
2026-04-19 18:30 32.22952 -84.40674 37188 ft 438 kts 191°
2026-04-19 18:30 32.16873 -84.40553 37187 ft 438 kts 191°
2026-04-19 18:31 32.10779 -84.40431 37184 ft 438 kts 191°
2026-04-19 18:31 32.04680 -84.40309 37192 ft 438 kts 191°
2026-04-19 18:32 31.98583 -84.40188 37187 ft 438 kts 191°
2026-04-19 18:32 31.92514 -84.40068 37188 ft 438 kts 191°
2026-04-19 18:33 31.86417 -84.39947 37193 ft 437 kts 191°
2026-04-19 18:33 31.80320 -84.39826 37198 ft 437 kts 191°
2026-04-19 18:34 31.74234 -84.39706 37203 ft 437 kts 191°
2026-04-19 18:34 31.68189 -84.39587 37209 ft 437 kts 191°
2026-04-19 18:35 31.62108 -84.39515 37212 ft 435 kts 192°
2026-04-19 18:35 31.56050 -84.39526 37214 ft 435 kts 192°
2026-04-19 18:36 31.49993 -84.39537 37212 ft 435 kts 192°
2026-04-19 18:36 31.43944 -84.39546 37211 ft 435 kts 192°
2026-04-19 18:37 31.37920 -84.39555 37201 ft 435 kts 192°
2026-04-19 18:37 31.31833 -84.39564 37199 ft 434 kts 192°
2026-04-19 18:38 31.25822 -84.39572 37196 ft 434 kts 192°
2026-04-19 18:38 31.19775 -84.39580 37202 ft 434 kts 192°
2026-04-19 18:39 31.13735 -84.39588 37191 ft 434 kts 192°
2026-04-19 18:39 31.07679 -84.39597 37197 ft 434 kts 192°
2026-04-19 18:40 31.01641 -84.39605 37193 ft 434 kts 192°
2026-04-19 18:40 30.95632 -84.39614 36914 ft 435 kts 192°
2026-04-19 18:40 30.92601 -84.39618 36654 ft 435 kts 192°
2026-04-19 18:41 30.89563 -84.39623 36383 ft 436 kts 192°
2026-04-19 18:41 30.86521 -84.39627 36132 ft 436 kts 192°
2026-04-19 18:41 30.83473 -84.39631 35882 ft 437 kts 192°
2026-04-19 18:41 30.80431 -84.39635 35629 ft 437 kts 191°
2026-04-19 18:42 30.77393 -84.39640 35380 ft 438 kts 191°
2026-04-19 18:42 30.74380 -84.39644 35143 ft 438 kts 191°
2026-04-19 18:42 30.71331 -84.39647 34855 ft 436 kts 191°
2026-04-19 18:42 30.68301 -84.39649 34310 ft 436 kts 191°
2026-04-19 18:43 30.65260 -84.39655 33587 ft 438 kts 191°
2026-04-19 18:43 30.62209 -84.39660 32921 ft 438 kts 190°
2026-04-19 18:43 30.59157 -84.39664 32252 ft 439 kts 190°
2026-04-19 18:43 30.56106 -84.39669 31577 ft 440 kts 190°
2026-04-19 18:44 30.53037 -84.39674 30889 ft 441 kts 189°
2026-04-19 18:44 30.49947 -84.39679 30148 ft 443 kts 189°
2026-04-19 18:44 30.46854 -84.39683 29316 ft 445 kts 189°
2026-04-19 18:44 30.43754 -84.39687 28533 ft 445 kts 189°
2026-04-19 18:45 30.40659 -84.39690 27736 ft 445 kts 188°
2026-04-19 18:45 30.37566 -84.39529 26895 ft 454 kts 181°
2026-04-19 18:45 30.34451 -84.38808 26389 ft 460 kts 172°
2026-04-19 18:45 30.31453 -84.37433 25800 ft 469 kts 160°
2026-04-19 18:46 30.28685 -84.35377 25196 ft 476 kts 149°
2026-04-19 18:46 30.26140 -84.32941 24730 ft 472 kts 146°
2026-04-19 18:46 30.23664 -84.30463 24119 ft 469 kts 145°
2026-04-19 18:46 30.21199 -84.27991 23433 ft 467 kts 145°
2026-04-19 18:47 30.18747 -84.25543 22759 ft 464 kts 145°
2026-04-19 18:47 30.16308 -84.23118 22144 ft 459 kts 145°
2026-04-19 18:47 30.13895 -84.20724 21512 ft 455 kts 145°
2026-04-19 18:47 30.11530 -84.18384 20879 ft 451 kts 145°
2026-04-19 18:48 30.09160 -84.16042 20243 ft 447 kts 145°
2026-04-19 18:48 30.06802 -84.13714 19608 ft 443 kts 145°
2026-04-19 18:48 30.04470 -84.11414 18976 ft 439 kts 145°
2026-04-19 18:48 30.02154 -84.09133 18365 ft 435 kts 145°
2026-04-19 18:49 29.99864 -84.06878 17692 ft 430 kts 144°
2026-04-19 18:49 29.97592 -84.04642 17066 ft 425 kts 144°
2026-04-19 18:49 29.95355 -84.02442 16465 ft 420 kts 144°
2026-04-19 18:49 29.93146 -84.00271 15864 ft 415 kts 143°
2026-04-19 18:50 29.90956 -83.98121 15270 ft 411 kts 143°
2026-04-19 18:50 29.88815 -83.96020 14702 ft 408 kts 143°
2026-04-19 18:50 29.86660 -83.93906 14126 ft 405 kts 143°
2026-04-19 18:50 29.84520 -83.91808 13525 ft 402 kts 142°
2026-04-19 18:51 29.82357 -83.89789 13159 ft 400 kts 148°
2026-04-19 18:51 29.80002 -83.88094 12978 ft 397 kts 153°
2026-04-19 18:51 29.77598 -83.86527 12872 ft 397 kts 154°
2026-04-19 18:52 29.72786 -83.83442 12608 ft 395 kts 154°
2026-04-19 18:52 29.70387 -83.81901 12519 ft 395 kts 154°
2026-04-19 18:52 29.67987 -83.80358 12433 ft 394 kts 154°
2026-04-19 18:52 29.65592 -83.78818 12346 ft 394 kts 154°
2026-04-19 18:53 29.63197 -83.77278 12260 ft 394 kts 154°
2026-04-19 18:53 29.60804 -83.75739 12170 ft 394 kts 154°
2026-04-19 18:53 29.58414 -83.74203 12086 ft 393 kts 154°
2026-04-19 18:53 29.56028 -83.72669 12002 ft 393 kts 154°
2026-04-19 18:54 29.53666 -83.71153 11980 ft 393 kts 154°
2026-04-19 18:54 29.51276 -83.69619 11978 ft 393 kts 154°
2026-04-19 18:54 29.48884 -83.68084 11852 ft 392 kts 154°
2026-04-19 18:54 29.46501 -83.66556 11660 ft 392 kts 153°
2026-04-19 18:55 29.44120 -83.65030 11565 ft 391 kts 153°
2026-04-19 18:55 29.41745 -83.63509 11477 ft 391 kts 153°
2026-04-19 18:55 29.39366 -83.61986 11397 ft 390 kts 153°
2026-04-19 18:55 29.36999 -83.60472 11306 ft 390 kts 153°
2026-04-19 18:56 29.34594 -83.59062 11202 ft 387 kts 160°
2026-04-19 18:56 29.32052 -83.58048 11133 ft 385 kts 166°
2026-04-19 18:56 29.29493 -83.57168 11057 ft 384 kts 166°
2026-04-19 18:56 29.26923 -83.56309 10976 ft 384 kts 166°
2026-04-19 18:57 29.24391 -83.55461 10890 ft 384 kts 166°
2026-04-19 18:57 29.21830 -83.54600 10799 ft 383 kts 166°
2026-04-19 18:57 29.19275 -83.53739 10720 ft 383 kts 166°
2026-04-19 18:57 29.16727 -83.52880 10633 ft 382 kts 166°
2026-04-19 18:58 29.14169 -83.52016 10552 ft 381 kts 166°
2026-04-19 18:58 29.11626 -83.51157 10466 ft 381 kts 166°
2026-04-19 18:58 29.09086 -83.50300 10386 ft 380 kts 166°
2026-04-19 18:58 29.06546 -83.49443 10303 ft 379 kts 166°
2026-04-19 18:59 29.04016 -83.48589 10205 ft 373 kts 166°
2026-04-19 18:59 29.01586 -83.47767 10096 ft 355 kts 166°
2026-04-19 18:59 28.99305 -83.46995 9985 ft 338 kts 166°
2026-04-19 18:59 28.97134 -83.46141 9869 ft 323 kts 160°
2026-04-19 19:00 28.95115 -83.45143 9705 ft 311 kts 158°
2026-04-19 19:00 28.93180 -83.44141 9624 ft 303 kts 158°
2026-04-19 19:00 28.91253 -83.43140 9594 ft 305 kts 158°
2026-04-19 19:00 28.89317 -83.42137 9555 ft 305 kts 158°
2026-04-19 19:01 28.88007 -83.41458 9538 ft 305 kts 158°
2026-04-19 19:01 28.86077 -83.40459 9499 ft 305 kts 158°
2026-04-19 19:01 28.84170 -83.39473 9454 ft 304 kts 158°
2026-04-19 19:01 28.82239 -83.38476 9433 ft 304 kts 159°
2026-04-19 19:02 28.80318 -83.37484 9394 ft 304 kts 159°
2026-04-19 19:02 28.78390 -83.36489 9330 ft 303 kts 159°
2026-04-19 19:02 28.76467 -83.35497 9268 ft 303 kts 159°
2026-04-19 19:02 28.74546 -83.34507 9228 ft 303 kts 159°
2026-04-19 19:03 28.72626 -83.33517 9168 ft 303 kts 159°
2026-04-19 19:03 28.70708 -83.32529 9081 ft 302 kts 159°
2026-04-19 19:03 28.68788 -83.31541 9032 ft 302 kts 159°
2026-04-19 19:03 28.66876 -83.30556 8965 ft 302 kts 159°
2026-04-19 19:04 28.64952 -83.29567 8900 ft 302 kts 159°
2026-04-19 19:04 28.63040 -83.28583 8835 ft 301 kts 159°
2026-04-19 19:04 28.61125 -83.27599 8763 ft 301 kts 159°
2026-04-19 19:04 28.59216 -83.26618 8701 ft 301 kts 159°
2026-04-19 19:05 28.57304 -83.25636 8635 ft 301 kts 158°
2026-04-19 19:05 28.55398 -83.24657 8565 ft 300 kts 158°
2026-04-19 19:05 28.53516 -83.23691 8500 ft 300 kts 158°
2026-04-19 19:05 28.51586 -83.22701 8439 ft 300 kts 158°
2026-04-19 19:06 28.49713 -83.21740 8369 ft 300 kts 158°
2026-04-19 19:06 28.47809 -83.20764 8299 ft 300 kts 158°
2026-04-19 19:06 28.45909 -83.19790 8236 ft 299 kts 158°
2026-04-19 19:06 28.44010 -83.18817 8172 ft 299 kts 158°
2026-04-19 19:07 28.42115 -83.17847 8102 ft 299 kts 158°
2026-04-19 19:07 28.40219 -83.16877 8024 ft 298 kts 158°
2026-04-19 19:07 28.38327 -83.15921 8013 ft 298 kts 159°
2026-04-19 19:07 28.36427 -83.14969 8012 ft 298 kts 159°
2026-04-19 19:08 28.34533 -83.14023 8008 ft 297 kts 159°
2026-04-19 19:08 28.32640 -83.13077 8009 ft 297 kts 159°
2026-04-19 19:08 28.30747 -83.12132 8012 ft 297 kts 159°
2026-04-19 19:08 28.28862 -83.11181 8008 ft 297 kts 156°
2026-04-19 19:09 28.27108 -83.09922 8013 ft 299 kts 144°
2026-04-19 19:09 28.25501 -83.08418 8012 ft 300 kts 141°
2026-04-19 19:09 28.23922 -83.06866 8010 ft 300 kts 141°
2026-04-19 19:09 28.22365 -83.05329 8013 ft 300 kts 141°
2026-04-19 19:10 28.20781 -83.03800 8010 ft 299 kts 145°
2026-04-19 19:10 28.18953 -83.02748 8010 ft 292 kts 169°
2026-04-19 19:10 28.16947 -83.02451 8017 ft 290 kts 180°
2026-04-19 19:10 28.14933 -83.02355 8016 ft 290 kts 181°
2026-04-19 19:11 28.12915 -83.02286 8015 ft 290 kts 181°
2026-04-19 19:11 28.10902 -83.02215 8015 ft 290 kts 181°
2026-04-19 19:11 28.08889 -83.02136 8016 ft 290 kts 181°
2026-04-19 19:11 28.06871 -83.02053 8014 ft 290 kts 181°
2026-04-19 19:12 28.04857 -83.01966 8016 ft 289 kts 181°
2026-04-19 19:12 28.02843 -83.01878 8017 ft 289 kts 181°
2026-04-19 19:12 28.00831 -83.01790 8017 ft 289 kts 181°
2026-04-19 19:12 27.98846 -83.01702 8018 ft 289 kts 181°
2026-04-19 19:13 27.96840 -83.01613 8015 ft 289 kts 180°
2026-04-19 19:13 27.94832 -83.01524 8016 ft 288 kts 181°
2026-04-19 19:13 27.92819 -83.01435 7916 ft 288 kts 180°
2026-04-19 19:13 27.90821 -83.01346 7473 ft 288 kts 180°
2026-04-19 19:14 27.88808 -83.01257 6969 ft 290 kts 180°
2026-04-19 19:14 27.86805 -83.01168 6681 ft 284 kts 180°
2026-04-19 19:14 27.84872 -83.01080 6539 ft 272 kts 180°
2026-04-19 19:14 27.83021 -83.00996 6407 ft 260 kts 181°
2026-04-19 19:15 27.81249 -83.00917 6280 ft 249 kts 181°
2026-04-19 19:15 27.79558 -83.00703 6121 ft 243 kts 168°
2026-04-19 19:15 27.78051 -82.99927 5863 ft 243 kts 145°
2026-04-19 19:15 27.76803 -82.98643 5573 ft 242 kts 135°
2026-04-19 19:16 27.75662 -82.97252 5293 ft 241 kts 134°
2026-04-19 19:16 27.74541 -82.95852 5034 ft 239 kts 134°
2026-04-19 19:16 27.73428 -82.94469 4801 ft 237 kts 134°
2026-04-19 19:16 27.72317 -82.93099 4711 ft 237 kts 134°
2026-04-19 19:17 27.71202 -82.91730 4648 ft 237 kts 134°
2026-04-19 19:17 27.70090 -82.90355 4573 ft 237 kts 132°
2026-04-19 19:17 27.69099 -82.88870 4525 ft 237 kts 126°
2026-04-19 19:17 27.68184 -82.87322 4464 ft 237 kts 124°
2026-04-19 19:18 27.67284 -82.85762 4398 ft 237 kts 124°
2026-04-19 19:18 27.66388 -82.84206 4342 ft 236 kts 124°
2026-04-19 19:18 27.65501 -82.82670 4272 ft 236 kts 124°
2026-04-19 19:18 27.64603 -82.81117 4222 ft 236 kts 124°
2026-04-19 19:19 27.63706 -82.79569 4153 ft 236 kts 124°
2026-04-19 19:19 27.62808 -82.78020 4092 ft 235 kts 124°
2026-04-19 19:19 27.61909 -82.76471 4032 ft 235 kts 124°
2026-04-19 19:20 27.60132 -82.73409 3914 ft 234 kts 124°
2026-04-19 19:20 27.59239 -82.71873 3846 ft 234 kts 124°
2026-04-19 19:20 27.58349 -82.70341 3785 ft 234 kts 124°
2026-04-19 19:20 27.57456 -82.68805 3734 ft 233 kts 124°
2026-04-19 19:21 27.56568 -82.67277 3677 ft 232 kts 125°
2026-04-19 19:21 27.55682 -82.65753 3617 ft 232 kts 124°
2026-04-19 19:21 27.54809 -82.64253 3560 ft 231 kts 125°
2026-04-19 19:21 27.53923 -82.62731 3504 ft 232 kts 125°
2026-04-19 19:22 27.53035 -82.61201 3486 ft 235 kts 125°
2026-04-19 19:22 27.52145 -82.59670 3404 ft 232 kts 125°
2026-04-19 19:22 27.51255 -82.58144 3337 ft 233 kts 125°
2026-04-19 19:22 27.50376 -82.56639 3245 ft 228 kts 125°
2026-04-19 19:23 27.49502 -82.55144 3217 ft 230 kts 125°
2026-04-19 19:23 27.48618 -82.53633 3138 ft 230 kts 124°
2026-04-19 19:23 27.47745 -82.52139 3080 ft 228 kts 124°
2026-04-19 19:23 27.46860 -82.50655 3003 ft 228 kts 128°
2026-04-19 19:24 27.45855 -82.49310 2948 ft 227 kts 134°
2026-04-19 19:24 27.44773 -82.48020 2913 ft 229 kts 135°
2026-04-19 19:24 27.43662 -82.46725 2840 ft 228 kts 135°
2026-04-19 19:24 27.42566 -82.45444 2758 ft 227 kts 135°
2026-04-19 19:25 27.41459 -82.44149 2720 ft 229 kts 135°
2026-04-19 19:25 27.40347 -82.42851 2602 ft 230 kts 135°
2026-04-19 19:25 27.39252 -82.41573 2465 ft 228 kts 136°
2026-04-19 19:25 27.38171 -82.40309 2391 ft 220 kts 135°
2026-04-19 19:26 27.37102 -82.39058 2227 ft 226 kts 134°
2026-04-19 19:26 27.36000 -82.37767 2112 ft 231 kts 135°
2026-04-19 19:26 27.34895 -82.36473 1999 ft 227 kts 135°
2026-04-19 19:26 27.33785 -82.35179 2035 ft 232 kts 135°
2026-04-19 19:27 27.32646 -82.33882 2023 ft 233 kts 136°
2026-04-19 19:27 27.31348 -82.32912 1949 ft 215 kts 168°
2026-04-19 19:27 27.29973 -82.32936 2104 ft 195 kts 201°
2026-04-19 19:27 27.28800 -82.33697 2039 ft 196 kts 219°
2026-04-19 19:28 27.27753 -82.34683 2027 ft 196 kts 231°
2026-04-19 19:28 27.27231 -82.36020 1996 ft 186 kts 263°
2026-04-19 19:28 27.27175 -82.37466 1914 ft 186 kts 278°
2026-04-19 19:28 27.27542 -82.38847 1790 ft 185 kts 296°
2026-04-19 19:29 27.28164 -82.40113 1792 ft 184 kts 303°
2026-04-19 19:29 27.28814 -82.41266 1784 ft 170 kts 304°
2026-04-19 19:29 27.29449 -82.42345 1783 ft 158 kts 305°
2026-04-19 19:29 27.30036 -82.43331 1775 ft 143 kts 304°
2026-04-19 19:30 27.30504 -82.44113 1598 ft 131 kts 305°
2026-04-19 19:30 27.31006 -82.44951 1358 ft 131 kts 306°
2026-04-19 19:30 27.31539 -82.45834 1366 ft 143 kts 305°
2026-04-19 19:30 27.32079 -82.46753 1221 ft 135 kts 306°
2026-04-19 19:31 27.32643 -82.47543 1009 ft 127 kts 313°
2026-04-19 19:31 27.33235 -82.48241 862 ft 120 kts 311°
2026-04-19 19:31 27.33799 -82.48920 704 ft 122 kts 312°
2026-04-19 19:31 27.34405 -82.49611 592 ft 124 kts 311°
2026-04-19 19:32 27.35008 -82.50307 534 ft 127 kts 310°
2026-04-19 19:32 27.35670 -82.51073 547 ft 141 kts 312°
2026-04-19 19:32 27.36341 -82.51841 535 ft 134 kts 312°
2026-04-19 19:32 27.37007 -82.52606 559 ft 140 kts 311°
2026-04-19 19:33 27.37672 -82.53370 411 ft 132 kts 313°
2026-04-19 19:33 27.38297 -82.54105 165 ft 127 kts 312°
2026-04-19 19:33 27.38893 -82.54759 48 ft 110 kts 311°
2026-04-19 19:33 27.39363 -82.55313 35 ft 77 kts 315°
2026-04-19 19:34 27.39539 -82.55513 35 ft 0 kts 310°
2026-04-19 19:34 27.39527 -82.55529 37 ft 10 kts 221°
2026-04-19 19:34 27.39499 -82.55580 34 ft 0 kts 259°
2026-04-19 19:35 27.39498 -82.55583 35 ft 3 kts 259°
2026-04-19 19:35 27.39468 -82.55587 37 ft 13 kts 167°
2026-04-19 19:35 27.39379 -82.55498 34 ft 23 kts 133°
2026-04-19 19:35 27.39263 -82.55367 33 ft 24 kts 135°
2026-04-19 19:36 27.39145 -82.55259 33 ft 19 kts 183°
2026-04-19 19:36 27.39052 -82.55333 34 ft 11 kts 214°
2026-04-19 19:36 27.39034 -82.55346 35 ft 0 kts 213°